Location: Pittsburgh
(40.4410°N, 79.9960°W)
Time: 04:30:17
(UTC-04:00)

BlueWalker 3 - Pass Details

Date: 22 March 2026
Orbit: 449 x 457 km, 53.2° (Epoch: 17 April)

Event Time Altitude Azimuth Distance (km) Brightness Sun altitude
Rises 20:07:48 0° 201° (SSW) 2,446 5.6 -7.2°
Reaches altitude 10° 20:10:09 10° 188° (S) 1,580 4.5 -7.6°
Maximum altitude 20:13:08 26° 131° (SE) 938 2.8 -8.2°
Drops below altitude 10° 20:16:09 10° 73° (ENE) 1,593 3.9 -8.7°
Enters shadow 20:16:15 10° 73° (ENE) 1,627 4.0 -8.8°
